KEKX

Details ICAO KEKX
Name ADDINGTON FLD
Region United States
Timezone America/New_York (UTC-4.0)
Plans Departing 4
Arriving 9
Stats Elevation 775 ft / 236 m (AMSL)
Location 37.686007° -85.925038°
Runways 1
Magnetic Variation 4.632° W
Sunrise 2018-05-25 10:28:27 UTC / 2018-05-25 06:28:27 Local
Sunset 2018-05-26 00:55:45 UTC / 2018-05-25 20:55:45 Local
Advertisement - Login to hide

Runways

ID Width Length Bearing (true) Bearing (mag) Surface Threshold Offset Overrun Length
05 100 ft / 30 m 6,000 ft / 1,829 m 46.51° 51.14° Asphalt 0 ft / 0 m 0 ft / 0 m
23 100 ft / 30 m 6,000 ft / 1,829 m 226.52° 231.15° Asphalt 0 ft / 0 m 0 ft / 0 m

Map

Weather


0- 5 10 15 20 25 30 35+ Temperature / ° C

Clouds and Precipitation
Forecast for 2018-05-26 00:00 UTC. Updated 3 hours ago

Ground ~20,000 ft ~40,000 ft Winds

METAR

KEKX 260215Z AUTO 00000KT 10SM CLR 22/19 A2990 RMK AO2 T02210190

TAF

Not found

Frequencies

Recorded 121.02 MHz AWOS 3
Clearance 119.45 MHz CLNC DEL
Approach 132.07 MHz LOUISVILLE APP/DEP
Unicom 122.80 MHz CTAF/UNICOM
Approach 123.67 MHz LOUISVILLE APP/DEP
Warning: Do not use this data for real-world aviation or navigation. No guarantee of current accuracy is given.